Brookings, OR

1:32 AM PDT on May 23, 2017 (GMT -0700)
Brookings State

Weather History for KBOK - February, 2014

Change the Weather History Date:

Saturday, February 15, 2014

  Actual Average Record
Temperature  
Mean Temperature 48 °F -  
Max Temperature 53 °F 55 °F 75 °F (2015)
Min Temperature 43 °F 43 °F 30 °F (1956)
Degree Days  
Heating Degree Days 17    
Moisture  
Dew Point 51 °F    
Average Humidity 98    
Maximum Humidity 100    
Minimum Humidity 81    
Precipitation  
Precipitation 1.12 in - - ()
Sea Level Pressure  
Sea Level Pressure 29.80 in    
Wind  
Wind Speed 12 mph (South)    
Max Wind Speed 22 mph    
Max Gust Speed 33 mph    
Visibility 2 miles    
Events Fog , Rain    
Averages and records for this station are not official NWS values.
T = Trace of Precipitation, MM = Missing Value Source: NWS Daily Summary

Daily Weather History Graph

Daily Weather History Graph

Search for Another Location

Airport or City:

Trip Planner

Search our weather history database for the weather conditions in past years. The results will help you decide how hot, cold, wet, or windy it might be!

Date:

Astronomy

Feb. 15, 2014 Rise Set
Actual Time 7:12 AM PST 5:50 PM PST
Civil Twilight 6:44 AM PST 6:18 PM PST
Nautical Twilight 6:11 AM PST 6:51 PM PST
Astronomical Twilight 5:39 AM PST 7:23 PM PST
Moon 6:57 PM PST (2/15) 7:13 AM PST (2/15)
Length of Visible Light 11h 34m
Length of Day
10h 37m
Full, 99% of the Moon is Illuminated
Feb 15
Full
Feb 22
Last Quarter
Mar 1
New
Mar 8
First Quarter
Mar 16
Full

Hourly Weather History & Observations

Time (PST) Temp. Windchill Dew Point Humidity Pressure Visibility Wind Dir Wind Speed Gust Speed Precip Events Conditions
12:03 AM 51.8 °F - 51.8 °F 100% 29.91 in 1.8 mi SE 4.6 mph - N/A   Overcast
12:11 AM 51.8 °F - 51.8 °F 100% 29.90 in 2.5 mi SE 10.4 mph - 0.01 in Rain Light Rain
12:20 AM 53.6 °F - 53.6 °F 100% 29.90 in 2.5 mi SE 11.5 mph - 0.01 in Rain Light Rain
12:34 AM 53.6 °F - 53.6 °F 100% 29.90 in 1.8 mi SE 8.1 mph - 0.02 in Rain Light Rain
12:48 AM 53.6 °F - 53.6 °F 100% 29.90 in 1.0 mi SE 11.5 mph - 0.05 in Rain Light Rain
12:56 AM 52.9 °F - 52.9 °F 100% 29.90 in 0.5 mi SSE 10.4 mph - 0.06 in Fog , Rain Light Rain
1:19 AM 53.6 °F - 53.6 °F 100% 29.89 in 0.2 mi SSE 10.4 mph 17.3 mph 0.03 in Fog , Rain Light Rain
1:56 AM 52.9 °F - 52.9 °F 100% 29.88 in 0.2 mi South 10.4 mph 17.3 mph 0.10 in Fog , Rain Light Rain
2:16 AM 53.6 °F - 53.6 °F 100% 29.86 in 0.2 mi South 10.4 mph - 0.02 in Fog , Rain Light Rain
2:39 AM 53.6 °F - 53.6 °F 100% 29.85 in 0.2 mi South 12.7 mph 20.7 mph 0.07 in Fog , Rain Heavy Rain
2:56 AM 52.9 °F - 52.9 °F 100% 29.85 in 0.2 mi South 13.8 mph 18.4 mph 0.16 in Fog , Rain Heavy Rain
3:56 AM 52.9 °F - 52.9 °F 100% 29.84 in 0.2 mi South 16.1 mph 21.9 mph 0.17 in Fog , Rain Light Rain
4:03 AM 53.6 °F - 53.6 °F 100% 29.84 in 0.2 mi South 17.3 mph 27.6 mph 0.00 in Fog , Rain Light Rain
4:17 AM 53.6 °F - 53.6 °F 100% 29.84 in 0.2 mi SSE 13.8 mph 21.9 mph 0.02 in Fog , Rain Light Rain
4:26 AM 53.6 °F - 53.6 °F 100% 29.83 in 0.2 mi South 17.3 mph 25.3 mph 0.04 in Fog , Rain Rain
4:43 AM 53.6 °F - 53.6 °F 100% 29.83 in 0.2 mi South 13.8 mph 23.0 mph 0.05 in Fog , Rain Light Rain
4:56 AM 52.9 °F - 52.9 °F 100% 29.84 in 0.2 mi South 15.0 mph 25.3 mph 0.06 in Fog , Rain Light Rain
5:23 AM 53.6 °F - 53.6 °F 100% 29.82 in 0.2 mi SSE 16.1 mph 25.3 mph 0.02 in Fog , Rain Light Rain
5:56 AM 52.9 °F - 52.9 °F 100% 29.81 in 0.2 mi South 9.2 mph 20.7 mph 0.06 in Fog , Rain Light Rain
6:11 AM 53.6 °F - 53.6 °F 100% 29.80 in 0.2 mi South 15.0 mph 23.0 mph 0.01 in Fog , Rain Light Rain
6:48 AM 53.6 °F - 53.6 °F 100% 29.79 in 0.2 mi South 16.1 mph 28.8 mph 0.03 in Fog , Rain Light Rain
6:56 AM 52.9 °F - 52.9 °F 100% 29.80 in 0.2 mi South 13.8 mph 25.3 mph 0.04 in Fog , Rain Light Rain
7:18 AM 53.6 °F - 53.6 °F 100% 29.78 in 0.2 mi South 17.3 mph 23.0 mph 0.00 in Fog , Rain Light Rain
7:33 AM 53.6 °F - 53.6 °F 100% 29.77 in 0.2 mi South 16.1 mph 23.0 mph 0.01 in Fog , Rain Light Rain
7:56 AM 52.0 °F - 52.0 °F 100% 29.78 in 0.2 mi South 15.0 mph - 0.01 in Fog Fog
8:02 AM 51.8 °F - 51.8 °F 100% 29.77 in 0.8 mi South 15.0 mph - 0.00 in Rain Light Rain
8:05 AM 51.8 °F - 51.8 °F 100% 29.77 in 1.2 mi South 15.0 mph - 0.00 in   Overcast
8:07 AM 51.8 °F - 51.8 °F 100% 29.77 in 2.0 mi SSE 15.0 mph - 0.00 in   Overcast
8:16 AM 51.8 °F - 51.8 °F 100% 29.77 in 1.2 mi South 15.0 mph - 0.00 in Rain Light Rain
8:18 AM 51.8 °F - 51.8 °F 100% 29.77 in 0.8 mi SSE 13.8 mph - 0.00 in Rain Light Rain
8:24 AM 51.8 °F - 51.8 °F 100% 29.77 in 0.2 mi SSE 15.0 mph 21.9 mph 0.00 in Fog , Rain Light Rain
8:48 AM 51.8 °F - 51.8 °F 100% 29.76 in 0.8 mi South 13.8 mph 21.9 mph 0.00 in   Overcast
8:56 AM 52.0 °F - 52.0 °F 100% 29.77 in 4.0 mi SSE 13.8 mph 20.7 mph 0.00 in   Overcast
9:14 AM 51.8 °F - 51.8 °F 100% 29.75 in 2.5 mi South 13.8 mph - 0.00 in Rain Light Rain
9:20 AM 51.8 °F - 51.8 °F 100% 29.75 in 3.0 mi South 13.8 mph 19.6 mph 0.00 in   Overcast
9:56 AM 52.0 °F - 52.0 °F 100% 29.74 in 4.0 mi South 12.7 mph 21.9 mph 0.01 in   Overcast
10:37 AM 51.8 °F - 51.8 °F 100% 29.73 in 5.0 mi South 19.6 mph 33.4 mph N/A   Overcast
10:56 AM 52.0 °F - 52.0 °F 100% 29.75 in 5.0 mi South 16.1 mph 25.3 mph N/A   Overcast
11:46 AM 53.6 °F - 51.8 °F 94% 29.72 in 4.0 mi South 20.7 mph 33.4 mph 0.00 in Rain Light Rain
11:56 AM 52.9 °F - 50.9 °F 93% 29.73 in 6.0 mi South 16.1 mph 32.2 mph 0.00 in Rain Light Rain
12:20 PM 53.6 °F - 51.8 °F 94% 29.71 in 5.0 mi South 17.3 mph 29.9 mph 0.00 in   Overcast
12:56 PM 52.9 °F - 50.9 °F 93% 29.70 in 4.0 mi South 18.4 mph 25.3 mph 0.00 in Rain Light Rain
1:02 PM 53.6 °F - 51.8 °F 94% 29.69 in 1.8 mi South 21.9 mph 32.2 mph 0.00 in Rain Light Rain
1:10 PM 53.6 °F - 51.8 °F 94% 29.69 in 1.2 mi South 20.7 mph 31.1 mph 0.01 in Rain Light Rain
1:23 PM 53.6 °F - 51.8 °F 94% 29.70 in 1.5 mi South 18.4 mph 27.6 mph 0.02 in Rain Light Rain
1:28 PM 51.8 °F - 51.8 °F 100% 29.70 in 1.0 mi South 17.3 mph 28.8 mph 0.04 in Rain Rain
1:30 PM 51.8 °F - 51.8 °F 100% 29.70 in 0.8 mi South 18.4 mph 28.8 mph 0.05 in Rain Rain
1:34 PM 51.8 °F - 51.8 °F 100% 29.70 in 0.5 mi South 16.1 mph 28.8 mph 0.07 in Fog , Rain Rain
1:41 PM 51.8 °F - 51.8 °F 100% 29.70 in 0.5 mi South 17.3 mph 27.6 mph 0.09 in Fog , Rain Heavy Rain
1:56 PM 52.0 °F - 52.0 °F 100% 29.70 in 0.5 mi South 18.4 mph 33.4 mph 0.13 in Fog , Rain Light Rain
2:23 PM 51.8 °F - 51.8 °F 100% 29.71 in 1.0 mi South 19.6 mph 33.4 mph 0.02 in Rain Light Rain
2:34 PM 51.8 °F - 51.8 °F 100% 29.71 in 0.8 mi South 12.7 mph 32.2 mph 0.04 in Rain Light Rain
2:48 PM 51.8 °F - 51.8 °F 100% 29.70 in 0.5 mi South 16.1 mph 24.2 mph 0.06 in Fog , Rain Light Rain
2:56 PM 52.0 °F - 52.0 °F 100% 29.71 in 0.8 mi South 13.8 mph 31.1 mph 0.08 in Rain Rain
3:07 PM 51.8 °F - 51.8 °F 100% 29.70 in 0.2 mi South 12.7 mph 23.0 mph 0.02 in Fog , Rain Rain
3:15 PM 51.8 °F - 51.8 °F 100% 29.70 in 0.8 mi South 12.7 mph 23.0 mph 0.04 in Rain Rain
3:28 PM 51.8 °F - 51.8 °F 100% 29.70 in 0.5 mi SSW 18.4 mph 29.9 mph 0.10 in Fog , Rain Rain
3:44 PM 51.8 °F - 51.8 °F 100% 29.71 in 0.8 mi South 17.3 mph 25.3 mph 0.15 in Rain Light Rain
3:56 PM 52.0 °F - 52.0 °F 100% 29.73 in 0.5 mi SSW 9.2 mph 26.5 mph 0.18 in Fog , Rain Rain
4:05 PM 51.8 °F - 51.8 °F 100% 29.73 in 1.0 mi WSW 13.8 mph 23.0 mph 0.01 in Rain Light Rain
4:07 PM 51.8 °F - 51.8 °F 100% 29.73 in 1.5 mi SW 9.2 mph 23.0 mph 0.01 in Rain Light Rain
4:18 PM 51.8 °F - 51.8 °F 100% 29.74 in 2.5 mi SSW 10.4 mph 19.6 mph 0.02 in Rain Light Rain
4:32 PM 51.8 °F - 51.8 °F 100% 29.74 in 3.0 mi SSW 8.1 mph - 0.02 in Rain Light Rain
4:44 PM 51.8 °F - 51.8 °F 100% 29.76 in 3.0 mi SW 8.1 mph 18.4 mph 0.02 in Rain Light Rain
4:56 PM 50.9 °F - 50.9 °F 100% 29.77 in 4.0 mi SW 8.1 mph - 0.02 in Rain Light Rain
5:06 PM 51.8 °F - 50.0 °F 94% 29.77 in 4.0 mi Variable 5.8 mph - 0.00 in Rain Light Rain
5:56 PM 50.9 °F - 47.8 °F 89% 29.83 in 5.0 mi Variable 4.6 mph - 0.01 in   Overcast
6:18 PM 50.0 °F - 46.4 °F 87% 29.85 in 7.0 mi Calm Calm - N/A   Mostly Cloudy
6:56 PM 50.0 °F - 47.8 °F 92% 29.85 in 5.0 mi Variable 3.5 mph - 0.00 in Rain Light Rain
7:05 PM 50.0 °F - 48.2 °F 94% 29.86 in 2.5 mi WNW 11.5 mph 18.4 mph 0.01 in Rain Rain
7:09 PM 48.2 °F - 48.2 °F 100% 29.86 in 1.8 mi West 8.1 mph 18.4 mph 0.02 in Rain Heavy Rain
7:16 PM 48.2 °F - 46.4 °F 93% 29.86 in 3.0 mi WNW 5.8 mph - 0.02 in Rain Light Rain
7:42 PM 48.2 °F - 46.4 °F 93% 29.88 in 6.0 mi Calm Calm - 0.02 in   Overcast
7:56 PM 47.8 °F - 46.9 °F 97% 29.89 in 6.0 mi Calm Calm - 0.02 in   Overcast
8:56 PM 45.0 °F - 45.0 °F 100% 29.93 in 4.0 mi Calm Calm - N/A   Scattered Clouds
9:56 PM 43.9 °F - 43.9 °F 100% 29.96 in 3.0 mi Calm Calm - N/A   Partly Cloudy
10:56 PM 45.0 °F 40.6 °F 45.0 °F 100% 30.00 in 6.0 mi NNW 8.1 mph - N/A   Mostly Cloudy
11:03 PM 44.6 °F 40.2 °F 44.6 °F 100% 30.00 in 7.0 mi NNW 8.1 mph - N/A   Mostly Cloudy
11:20 PM 44.6 °F 41.4 °F 44.6 °F 100% 30.01 in 8.0 mi NW 5.8 mph - N/A   Mostly Cloudy
11:34 PM 44.6 °F 42.2 °F 39.2 °F 81% 30.01 in 5.0 mi Variable 4.6 mph - 0.00 in Rain Light Rain
11:41 PM 44.6 °F - 39.2 °F 81% 30.01 in 7.0 mi Calm Calm - 0.01 in Rain Light Rain
11:56 PM 45.0 °F - 41.0 °F 86% 30.02 in 9.0 mi Calm Calm - 0.01 in   Overcast